N2HMM-13 Weather Reports


time (UTC)temp
C
wind
direction
speed
KPH
gust
KPH
rain 1hr
cm
rain 24hr
cm
rain mn
cm
humidity
%
barometer
mb
20260506114505 18 207 9.7 12.9 0.00 0.00 0.00 79 991.8
20260506113005 18 207 9.7 12.9 0.00 0.00 0.00 78 991.7
20260506110005 18 207 9.7 12.9 0.00 0.00 0.00 79 991.6
20260506103005 18 207 9.7 12.9 0.00 0.03 0.00 79 991.6
20260506101505 18 207 9.7 12.9 0.00 0.03 0.00 79 991.5
20260506100005 18 207 9.7 12.9 0.00 0.03 0.00 78 991.4
20260506094505 18 207 9.7 12.9 0.00 0.03 0.00 78 991.2
20260506091505 18 207 9.7 12.9 0.00 0.03 0.00 77 991.3
20260506090006 18 207 9.7 12.9 0.00 0.03 0.00 77 991.4
20260506084505 17 207 9.7 12.9 0.00 0.03 0.00 77 991.7
20260506083005 18 207 9.7 12.9 0.00 0.03 0.00 74 991.7
20260506081505 18 207 9.7 12.9 0.00 0.03 0.00 72 991.8
20260506073005 19 207 9.7 12.9 0.00 0.03 0.00 67 991.9
20260506071504 19 207 9.7 12.9 0.00 0.03 0.00 66 991.7
20260506061505 20 207 9.7 12.9 0.00 0.03 0.00 64 992.1
20260506043006 21 207 9.7 12.9 0.00 0.03 0.00 61 992.5
20260506041505 21 207 9.7 12.9 0.00 0.03 0.00 61 992.5
20260506040006 21 207 9.7 12.9 0.00 0.03 0.00 59 992.4
20260506034505 21 207 9.7 12.9 0.00 0.03 0.03 56 992.3
20260506033006 21 207 9.7 12.9 0.00 0.03 0.03 55 992.3
20260506031506 22 207 9.7 12.9 0.00 0.03 0.03 53 992.1
20260506030005 22 207 9.7 12.9 0.00 0.03 0.03 51 992.0
20260506024505 22 207 9.7 12.9 0.00 0.03 0.03 50 992.0
20260506023005 22 207 9.7 12.9 0.00 0.03 0.03 50 992.0
20260506020006 22 207 9.7 12.9 0.00 0.03 0.03 50 991.9
20260506014505 22 207 9.7 12.9 0.00 0.03 0.03 49 991.9
20260506013007 22 207 9.7 12.9 0.00 0.03 0.03 49 991.9
20260506010005 23 207 9.7 12.9 0.00 0.03 0.03 45 991.3
20260506004506 23 207 9.7 12.9 0.00 0.03 0.03 43 991.2
20260506003005 23 207 9.7 12.9 0.00 0.03 0.03 43 991.3
20260506001505 23 207 9.7 12.9 0.00 0.03 0.03 43 991.1
20260506000006 24 207 9.7 12.9 0.00 0.03 0.03 42 991.0
20260505234505 24 207 9.7 12.9 0.00 0.03 0.03 42 990.8
20260505233006 24 207 9.7 12.9 0.00 0.03 0.03 42 990.8
20260505231505 25 207 9.7 12.9 0.00 0.03 0.03 42 990.8
20260505230005 25 207 9.7 12.9 0.00 0.03 0.03 41 990.6
20260505224505 25 207 9.7 12.9 0.00 0.03 0.03 41 990.5
20260505223006 25 207 9.7 12.9 0.00 0.03 0.03 40 990.4
20260505221506 26 207 9.7 12.9 0.00 0.03 0.03 40 990.2
20260505220005 26 207 9.7 12.9 0.00 0.03 0.03 38 990.1
20260505214506 27 207 9.7 12.9 0.00 0.03 0.03 37 989.9
20260505213006 27 207 9.7 12.9 0.00 0.03 0.03 36 989.8
20260505211506 28 207 9.7 12.9 0.00 0.03 0.03 36 989.8
20260505210006 28 207 9.7 12.9 0.00 0.03 0.03 36 989.4
20260505204505 28 207 9.7 12.9 0.00 0.03 0.03 35 989.4
20260505203005 28 207 9.7 12.9 0.00 0.03 0.03 35 989.5
20260505200005 28 207 9.7 12.9 0.00 0.03 0.03 35 989.8
20260505194505 28 207 9.7 12.9 0.00 0.03 0.03 37 990.0
20260505193006 28 207 9.7 12.9 0.00 0.03 0.03 37 990.0
20260505191507 28 207 9.7 12.9 0.00 0.03 0.03 39 990.1
20260505190005 29 207 9.7 12.9 0.00 0.03 0.03 38 990.3
20260505184506 28 207 9.7 12.9 0.00 0.03 0.03 37 990.5
20260505183006 28 207 9.7 12.9 0.00 0.03 0.03 37 990.7
20260505181505 28 207 9.7 12.9 0.00 0.03 0.03 42 991.1
20260505180005 28 207 9.7 12.9 0.00 0.03 0.03 42 991.1
20260505174505 28 207 9.7 12.9 0.00 0.03 0.03 43 991.1
20260505173005 27 207 9.7 12.9 0.00 0.03 0.03 43 991.1
20260505171506 27 207 9.7 12.9 0.00 0.03 0.03 44 991.5
20260505164505 27 207 9.7 12.9 0.00 0.03 0.03 46 991.8
20260505163008 26 207 9.7 12.9 0.00 0.03 0.03 48 992.0
20260505161505 26 207 9.7 12.9 0.00 0.03 0.03 51 992.2
20260505153006 25 207 9.7 12.9 0.00 0.03 0.03 50 992.7
20260505151505 24 207 9.7 12.9 0.00 0.03 0.03 50 992.7
20260505124505 21 207 9.7 12.9 0.00 0.03 0.03 62 992.7
20260505121506 19 207 9.7 12.9 0.00 0.03 0.03 66 992.4
20260505120006 18 207 9.7 12.9 0.00 0.03 0.03 69 992.4